(167319) = 2003 UH256

Discovered at Socorro on 2003-10-25 by LINEAR.

Orbit

Orbit type: Main Belt

Note: WebGL enabled browser required.

epoch2024-03-31.0
epoch JD2460400.5
perihelion date2022-04-19.86720
perihelion JD2459689.36720
argument of perihelion (°)272.50849
ascending node (°)183.08534
inclination (°)5.92326
eccentricity0.0869546
perihelion distance (AU)2.4813748
Tisserand w.r.t. Jupiter3.3
ΔV w.r.t. Earth (km/sec)10.0
semimajor axis (AU)2.7176905
mean anomaly (°)156.44243
mean daily motion (°/day)0.21999050
aphelion distance (AU)2.954
period (years)4.48
P-vector [x]-0.09718859
P-vector [y]0.94923607
P-vector [z]0.29917430
Q-vector [x]-0.99525048
Q-vector [y]-0.09101471
Q-vector [z]-0.03453685
absolute magnitude16.15
phase slope0.15
uncertainty0
referenceMPEC 2024-C181
observations used575
oppositions17
arc length (days)10397
first opposition used1994
last opposition used2023
residual rms (arc-secs)0.75
perturbers coarse indicatorM-v
perturbers precise indicator003Ek
first observation date used1994-10-29.0
last observation date used2023-04-17.0
computer nameMPCLINUX
JD of orbit computation2456937.246698
perihelion JD uncertainty (days)1.5794E-04
argument of perihelion uncertainty (°)5.4125E-05
ascending node uncertainty (°)4.0273E-05
inclination uncertainty (°)6.0311E-06
eccentricity uncertainty 3.6892E-08
perihelion distance uncertainty (AU)9.8816E-08
Minimum Orbit Intersection Distances (in AU)
for orbit epoch: 2460400.5, reference: E2024-CI1
Mercury2.17692
Venus1.7693
Earth1.50725
Mars0.89785
Jupiter2.18993
Saturn6.5697
Uranus15.7837
Neptune27.162

Observations

588 total observations over interval: 1994 10 29.23200 – 2023 04 17.298012
These data are available for download (format description).

Date (UT) J2000 RA J2000 Dec Magn Location Ref
1994 10 29.23200 02 50 33.02 +10 19 54.6 19.4 V 691 – Steward Observatory, Kitt Peak-Spacewatch MPS 130012
1994 10 29.25366 02 50 31.89 +10 19 46.2   691 – Steward Observatory, Kitt Peak-Spacewatch MPS 130012
1994 10 29.27555 02 50 30.80 +10 19 38.7   691 – Steward Observatory, Kitt Peak-Spacewatch MPS 130012
2002 08 05.22320 20 17 57.84 -11 54 44.0 20.5   644 – Palomar Mountain/NEAT MPS 130012
2002 08 05.25394 20 17 56.27 -11 54 52.2 20.1   644 – Palomar Mountain/NEAT MPS 130012
2002 08 05.29197 20 17 54.34 -11 55 02.1 19.9   644 – Palomar Mountain/NEAT MPS 130012
2003 10 25.26659 03 17 35.57 +11 58 14.3 19.7   704 – Lincoln Laboratory ETS, New Mexico MPS 89894
2003 10 25.27879 03 17 35.06 +11 58 09.8 20.5   704 – Lincoln Laboratory ETS, New Mexico MPS 89894
2003 10 25.30209 03 17 34.00 +11 58 01.8 20.3   704 – Lincoln Laboratory ETS, New Mexico MPS 89894
2003 10 25.31389 03 17 33.43 +11 57 58.5 20.8   704 – Lincoln Laboratory ETS, New Mexico MPS 89894
2003 10 29.23899 03 14 36.21 +11 35 04.1 19.9 V 691 – Steward Observatory, Kitt Peak-Spacewatch MPS 89894
2003 10 29.26691 03 14 34.84 +11 34 54.4 19.8 V 691 – Steward Observatory, Kitt Peak-Spacewatch MPS 89894
2003 10 29.27707 03 14 34.42 +11 34 51.8 20.1   704 – Lincoln Laboratory ETS, New Mexico MPS 90699
2003 10 29.28869 03 14 33.81 +11 34 47.4 20.1   704 – Lincoln Laboratory ETS, New Mexico MPS 90699
2003 10 29.29634 03 14 33.39 +11 34 44.0 20.0 V 691 – Steward Observatory, Kitt Peak-Spacewatch MPS 89894
2003 10 29.30034 03 14 33.20 +11 34 43.2 20.1   704 – Lincoln Laboratory ETS, New Mexico MPS 90699
2003 11 21.32526 02 55 05.76 +09 29 00.8 18.8 R 699 – Lowell Observatory-LONEOS MPS 93424
2003 11 21.33525 02 55 05.20 +09 28 56.0   699 – Lowell Observatory-LONEOS MPS 93424
2003 11 21.34511 02 55 04.73 +09 28 56.2   699 – Lowell Observatory-LONEOS MPS 93424
2003 11 21.37357 02 55 03.25 +09 28 47.0   699 – Lowell Observatory-LONEOS MPS 93424
2003 11 29.34780 02 49 04.49 +08 56 57.5 19.8 V 691 – Steward Observatory, Kitt Peak-Spacewatch MPS 93424
2003 11 29.37464 02 49 03.34 +08 56 52.0 20.3 V 691 – Steward Observatory, Kitt Peak-Spacewatch MPS 93424
2003 11 29.40553 02 49 02.07 +08 56 45.4 20.0 V 691 – Steward Observatory, Kitt Peak-Spacewatch MPS 93424
2005 03 03.33877 11 27 23.21 +00 52 34.4 19.5 R 703 – Catalina Sky Survey MPS 130012
2005 03 03.34905 11 27 22.83 +00 52 37.7 18.8 R 703 – Catalina Sky Survey MPS 130012
2005 03 03.35934 11 27 22.36 +00 52 44.1 19.5 R 703 – Catalina Sky Survey MPS 130012
2005 03 03.36968 11 27 21.74 +00 52 48.8 19.5 R 703 – Catalina Sky Survey MPS 130012
2005 03 08.29427 11 23 29.85 +01 28 57.3 19.3   704 – Lincoln Laboratory ETS, New Mexico MPS 129092
2005 03 08.31790 11 23 28.78 +01 29 08.3 19.3   704 – Lincoln Laboratory ETS, New Mexico MPS 129092
2005 03 08.32960 11 23 28.14 +01 29 12.8 19.5   704 – Lincoln Laboratory ETS, New Mexico MPS 129092
2005 03 08.34124 11 23 27.44 +01 29 18.7 20.1   704 – Lincoln Laboratory ETS, New Mexico MPS 129092
2005 03 10.31173 11 21 53.50 +01 44 04.6 19.2 R 695 – Kitt Peak MPS 130217
2005 03 10.44558 11 21 46.90 +01 45 04.8   695 – Kitt Peak MPS 130217
2005 03 11.30325 11 21 06.16 +01 51 32.4 19.3   704 – Lincoln Laboratory ETS, New Mexico MPS 130012
2005 03 11.30852 11 21 05.92 +01 51 34.7 18.5 R G96 – Mt. Lemmon Survey MPS 129092
2005 03 11.31521 11 21 05.58 +01 51 37.6 18.4 R G96 – Mt. Lemmon Survey MPS 129092
2005 03 11.32186 11 21 05.25 +01 51 40.6 18.4 R G96 – Mt. Lemmon Survey MPS 129092
2005 03 11.32855 11 21 04.92 +01 51 43.5 19.0 R G96 – Mt. Lemmon Survey MPS 129092
2005 03 11.32959 11 21 04.89 +01 51 43.8 19.4   704 – Lincoln Laboratory ETS, New Mexico MPS 130012
2005 03 11.35676 11 21 03.59 +01 51 56.8 19.5   704 – Lincoln Laboratory ETS, New Mexico MPS 130012
2005 03 17.39233 11 16 19.42 +02 37 19.5 19.1 R 703 – Catalina Sky Survey MPS 129092
2005 03 17.39938 11 16 19.21 +02 37 20.3 19.2 R 703 – Catalina Sky Survey MPS 129092
2005 03 17.40642 11 16 18.78 +02 37 24.0 19.5 R 703 – Catalina Sky Survey MPS 129092
2005 03 17.41345 11 16 18.46 +02 37 28.3 19.0 R 703 – Catalina Sky Survey MPS 129092
2005 04 02.29643 11 05 40.60 +04 26 21.2 16.8 R G96 – Mt. Lemmon Survey MPS 130217
2005 04 02.30429 11 05 40.33 +04 26 24.0 18.1 R G96 – Mt. Lemmon Survey MPS 130217
2005 04 02.31438 11 05 39.95 +04 26 27.8 19.4 R G96 – Mt. Lemmon Survey MPS 130217
2005 04 02.32256 11 05 39.71 +04 26 30.8 19.2 R G96 – Mt. Lemmon Survey MPS 130217
2005 04 11.16168 11 01 42.42 +05 14 01.7 20.3 V 691 – Steward Observatory, Kitt Peak-Spacewatch MPS 131680
2005 04 11.17722 11 01 42.11 +05 14 05.7 20.0 V 691 – Steward Observatory, Kitt Peak-Spacewatch MPS 131680
2005 04 11.19266 11 01 41.72 +05 14 10.5 20.5 V 691 – Steward Observatory, Kitt Peak-Spacewatch MPS 131680
2005 04 12.19133 11 01 21.51 +05 18 46.1 19.6 R G96 – Mt. Lemmon Survey MPS 131680
2005 04 12.19799 11 01 21.37 +05 18 47.9 20.2 R G96 – Mt. Lemmon Survey MPS 131680
2005 04 12.20468 11 01 21.22 +05 18 49.3 19.1 R G96 – Mt. Lemmon Survey MPS 131680
2005 04 12.21137 11 01 21.07 +05 18 51.5 19.9 R G96 – Mt. Lemmon Survey MPS 131680
2005 05 04.18113 10 59 59.28 +06 17 09.3 19.5 R G96 – Mt. Lemmon Survey MPS 133321
2005 05 04.19039 10 59 59.37 +06 17 10.0 20.4 R G96 – Mt. Lemmon Survey MPS 133321
2005 05 04.19970 10 59 59.47 +06 17 10.2 19.6 R G96 – Mt. Lemmon Survey MPS 133321
2005 05 04.20904 10 59 59.58 +06 17 10.8 19.4 R G96 – Mt. Lemmon Survey MPS 133321
2005 05 13.20585 11 02 39.29 +06 17 51.1 20.5 R G96 – Mt. Lemmon Survey MPS 134845
2005 05 13.21512 11 02 39.49 +06 17 50.5 20.6 R G96 – Mt. Lemmon Survey MPS 134845
2005 05 13.22443 11 02 39.67 +06 17 50.2 20.8 R G96 – Mt. Lemmon Survey MPS 134845
2005 05 13.23372 11 02 39.89 +06 17 49.9 21.2 R G96 – Mt. Lemmon Survey MPS 134845
2007 08 23.40996 23 50 19.63 +01 30 09.3 20.1 V 691 – Steward Observatory, Kitt Peak-Spacewatch MPS 214423
2007 08 23.42755 23 50 19.09 +01 30 02.9 20.2 V 691 – Steward Observatory, Kitt Peak-Spacewatch MPS 214423
2007 08 23.44515 23 50 18.50 +01 29 57.8 20.3 V 691 – Steward Observatory, Kitt Peak-Spacewatch MPS 214423
2007 09 15.27510 23 34 45.08 -00 54 15.4 19.2 V G96 – Mt. Lemmon Survey MPS 216168
2007 09 15.28073 23 34 44.79 -00 54 18.0 19.2 V G96 – Mt. Lemmon Survey MPS 216168
2007 09 15.28632 23 34 44.50 -00 54 20.4 19.1 V G96 – Mt. Lemmon Survey MPS 216168
2007 09 15.29196 23 34 44.25 -00 54 22.9 19.1 V G96 – Mt. Lemmon Survey MPS 216168
2007 10 06.14157 23 19 36.05 -03 20 42.0   691 – Steward Observatory, Kitt Peak-Spacewatch MPS 218607
2007 10 06.15525 23 19 35.57 -03 20 48.2   691 – Steward Observatory, Kitt Peak-Spacewatch MPS 218607
2007 10 06.16893 23 19 34.99 -03 20 51.6   691 – Steward Observatory, Kitt Peak-Spacewatch MPS 218607
2007 10 07.14682 23 18 59.54 -03 27 00.6 20.3 V G96 – Mt. Lemmon Survey MPS 218607
2007 10 07.15260 23 18 59.32 -03 27 02.1 20.1 V G96 – Mt. Lemmon Survey MPS 218607
2007 10 07.15815 23 18 59.11 -03 27 04.5 20.2 V G96 – Mt. Lemmon Survey MPS 218607
2007 10 07.16378 23 18 58.89 -03 27 06.3 20.1 V G96 – Mt. Lemmon Survey MPS 218607
2007 10 07.21017 23 18 57.16 -03 27 23.1 20.1 V G96 – Mt. Lemmon Survey MPS 218607
2007 10 07.21715 23 18 56.95 -03 27 25.9 20.1 V G96 – Mt. Lemmon Survey MPS 218607
2007 10 07.22407 23 18 56.66 -03 27 28.6 20.1 V G96 – Mt. Lemmon Survey MPS 218607
2007 10 07.23100 23 18 56.41 -03 27 31.1 20.1 V G96 – Mt. Lemmon Survey MPS 218607
2007 10 08.16086 23 18 23.69 -03 33 14.7 20.3 V 691 – Steward Observatory, Kitt Peak-Spacewatch MPS 218607
2007 10 08.17388 23 18 23.21 -03 33 19.3 20.1 V 691 – Steward Observatory, Kitt Peak-Spacewatch MPS 218607
2007 10 08.18690 23 18 22.72 -03 33 24.0 20.2 V 691 – Steward Observatory, Kitt Peak-Spacewatch MPS 218607
2007 10 12.15740 23 16 13.44 -03 56 34.9 20.2 V 691 – Steward Observatory, Kitt Peak-Spacewatch MPS 220443
2007 10 12.17322 23 16 12.99 -03 56 40.6 20.2 V 691 – Steward Observatory, Kitt Peak-Spacewatch MPS 220443
2007 10 12.18903 23 16 12.42 -03 56 45.4 20.4 V 691 – Steward Observatory, Kitt Peak-Spacewatch MPS 220443
2007 10 14.09409 23 15 17.13 -04 07 07.1 20.6 V 691 – Steward Observatory, Kitt Peak-Spacewatch MPS 220443
